[[{"header":{"parameterUnit":"m.s-1","parameterCategory":1,"la1":30.2991,"la2":30.254,"lo1":-89.0895,"lo2":-89.0444,"dy":0.0017,"dx":0.0017,"nx":28,"ny":28,"refTime":"2024-11-22T03:00:00:Z","depth":0,"parameterNumber":2,"parameterNumberName":"U-component_of_WINDS"},"data":[0,0,0,0,0,0,0,0,0,0,0,0,0,0,0,0,0,0,0,0,0,0,0,0,0,0,0,0,0,0,0,0,0,0,0,0,0,0,0,0,0,0,0,0,0,0,0,0,0,0,0,0,0,0,0,0,0,0,4.4018,4.4019,0,4.4138,4.414,4.4141,4.4055,4.4052,4.4048,4.4044,4.417,4.4176,4.4183,0,0,0,0,0,0,0,0,0,0,0,0,0,4.3716,4.3722,4.4018,4.4019,4.4021,4.4138,4.414,4.4141,4.4056,4.4051,4.4047,4.4042,4.4167,4.4175,4.4184,0,0,0,0,0,0,0,0,0,0,0,0,0,4.3843,4.3724,4.4017,4.3992,4.3991,4.4138,4.414,4.4142,4.4057,4.4051,4.4046,4.404,4.4165,4.4175,4.4185,4.4363,0,0,4.4216,4.4221,0,0,0,0,0,0,0,0,4.3836,4.3854,4.3994,4.3994,4.3993,4.4076,4.4079,4.4216,4.4058,4.4032,4.4044,4.4037,4.4143,4.4155,4.419,4.4369,4.4375,4.4217,4.4224,4.4228,4.4231,0,0,0,0,0,0,0,4.3827,4.3849,4.4065,4.3997,4.3996,4.3976,4.3987,4.4105,4.4118,4.4034,4.4028,4.4043,4.4142,4.418,4.4192,4.4376,4.4217,4.4226,4.4233,4.4237,4.471,4.4716,0,0,0,0,0,0,4.3821,4.3842,4.4062,4.4069,4.3899,4.3986,4.3999,4.4055,4.4117,4.4121,4.4048,4.4039,4.4166,4.418,4.4197,4.441,4.4228,4.4238,4.4244,4.4703,4.4711,4.4718,0,0,0,0,0,0,4.3814,4.3841,4.4057,4.3954,4.398,4.3997,4.4061,4.4061,4.4099,4.4127,4.413,4.4085,4.4162,4.4182,4.4323,4.4414,4.4242,4.4252,4.4696,4.4706,4.4714,4.484,0,0,0,0,0,0,4.3806,4.3839,4.3907,4.3956,4.3986,4.4181,4.4067,4.4067,4.4117,4.4106,4.4163,4.4167,4.4159,4.4308,4.4333,4.4425,4.426,4.4688,4.47,4.4711,4.4827,4.4852,4.4873,0,0,0,0,0,4.3796,4.3937,4.391,4.3937,4.407,4.4186,4.4203,4.419,4.4125,4.4193,4.4211,4.4165,4.44,4.4323,4.4351,4.4447,4.4682,4.4697,4.471,4.4817,4.4847,4.4873,0,0,0,0,0,0,4.3899,4.3943,4.3914,4.4076,4.4128,4.4171,4.4257,4.4223,4.4295,4.4282,4.4264,4.4277,4.4425,4.445,4.4364,4.4624,4.453,4.4551,4.4602,4.4631,4.4653,4.4645,4.4268,0,0,0,0,0,4.394,4.4029,4.4064,4.4203,4.4231,4.424,4.429,4.4276,4.4329,4.4351,4.4379,4.4433,4.4519,4.4576,4.4657,4.483,4.4842,4.491,4.4933,4.4952,4.497,4.5065,4.5096,4.4765,4.4765,4.4764,0,0,4.4027,4.4062,4.412,4.4225,4.4263,4.4358,4.4259,4.4362,4.4432,4.4366,4.4501,4.4524,4.4584,4.4742,4.4813,4.4767,4.5064,4.497,4.4985,4.4993,4.5083,4.5114,4.5142,4.4774,4.4773,4.4771,0,0,4.4233,4.4268,4.4389,4.4429,4.4489,4.4494,4.4523,4.4572,4.4585,4.472,4.4673,4.4756,4.4904,4.4949,4.4991,4.5215,4.5176,4.5242,4.5362,4.5455,4.5481,4.5504,4.5585,4.5614,4.526,4.526,4.526,0,4.4333,4.4472,4.4455,4.4562,4.4611,4.4555,4.4678,4.4718,4.4802,4.4837,4.4784,4.4969,4.5005,4.5174,4.5229,4.5264,4.5298,4.5236,4.5479,4.5502,4.5523,4.56,4.563,4.5268,4.5267,4.5266,4.5266,0,4.4593,4.4691,4.4781,4.4862,4.4921,4.5035,4.5036,4.5098,4.5079,4.509,4.5229,4.527,4.5358,4.5397,4.538,4.5564,4.5534,4.5481,4.5387,4.5563,4.5635,4.5664,4.5279,4.5276,4.5274,4.5272,0,0,4.4868,4.4938,4.4972,4.5009,4.5071,4.5146,4.5259,4.5345,4.5398,4.5458,4.5552,4.5679,4.5631,4.5679,4.5666,4.5747,4.5923,4.5684,4.5685,4.5728,4.613,4.617,4.6205,4.5897,4.5903,4.5907,4.6125,0,4.5077,4.5273,4.5261,4.5445,4.5535,4.5484,4.5583,4.5632,4.5646,4.5725,4.574,4.5831,4.5759,4.5788,4.5866,4.5885,4.6004,4.5869,4.5986,4.599,4.5973,4.6242,4.6285,4.6489,4.6153,4.6158,4.6161,0,4.5348,4.5417,4.561,4.5659,4.5697,4.5785,4.5864,4.594,4.5995,4.5999,4.6054,4.6028,4.6143,4.6046,4.6204,4.6113,4.616,4.6177,4.6185,4.6196,4.6087,4.6261,4.6553,4.6584,4.6206,4.6202,4.6199,0,4.553,4.5671,4.5805,4.5838,4.5898,4.5962,4.599,4.604,4.6093,4.6162,4.6196,4.6278,4.6323,4.6387,4.6384,4.6314,4.6546,4.6448,4.6553,4.6554,4.6605,4.6602,4.691,4.6634,4.6634,4.6633,4.6633,0,4.5767,4.5887,4.5887,4.597,4.6104,4.6089,4.6223,4.6244,4.6289,4.6375,4.6336,4.6419,4.641,4.6493,4.6492,4.6624,4.6644,4.6652,4.665,4.6656,4.6655,4.6687,4.6673,4.6641,4.664,4.6638,4.6637,0,4.5992,4.5997,4.614,4.6186,4.62,4.6297,4.6337,4.6415,4.6425,4.6536,4.6561,4.6578,4.6674,4.6677,4.6787,4.6787,4.6948,4.693,4.6929,4.6926,4.7032,4.7022,4.7371,4.7417,4.7111,4.7114,4.7117,0,4.6143,4.6234,4.629,4.6345,4.6377,4.6466,4.652,4.651,4.6568,4.6638,4.6709,4.6801,4.6874,4.703,4.7053,4.7137,4.7121,4.7238,4.7134,4.7137,4.7124,4.7119,4.7129,4.7259,4.7262,4.7265,4.7267,0,4.6411,4.6409,4.6487,4.6567,4.6632,4.6695,4.6753,4.6801,4.6798,4.6865,4.6962,4.7019,4.7132,4.7224,4.7307,4.7336,4.7303,4.7299,4.7328,4.7335,4.7332,4.7336,4.6986,4.7292,4.7289,4.7287,4.7286,4.7285,4.6604,4.6683,4.6735,4.6824,4.6867,4.6922,4.6999,4.7019,4.7099,4.719,4.7179,4.7288,4.7342,4.7449,4.7486,4.7571,4.7531,4.7573,4.7584,4.7595,4.7606,4.7318,4.7586,4.7586,4.7585,4.7584,4.7584,0,4.687,4.6901,4.6983,4.7065,4.7136,4.7097,4.7159,4.7221,4.7317,4.737,4.7443,4.7555,4.7645,4.7675,4.7762,4.7825,4.7812,4.7848,4.7844,4.7852,4.7637,4.7603,4.7858,4.7858,4.7858,4.7858,4.7858,4.7858,4.7017,4.7149,4.7154,4.7307,4.7337,4.7443,4.7482,4.7533,4.7575,4.7703,4.7777,4.7795,4.784,4.793,4.8011,4.8017,4.8052,4.8096,4.8096,4.7894,4.7867,4.784,4.7809,4.8103,4.8103,4.8304,4.8306,4.8307]},{"header":{"parameterUnit":"m.s-1","parameterCategory":1,"la1":30.2991,"la2":30.254,"lo1":-89.0895,"lo2":-89.0444,"dy":0.0017,"dx":0.0017,"nx":28,"ny":28,"refTime":"2024-11-22T03:00:00:Z","depth":0,"parameterNumber":3,"parameterNumberName":"V-component_of_WINDS"},"data":[0,0,0,0,0,0,0,0,0,0,0,0,0,0,0,0,0,0,0,0,0,0,0,0,0,0,0,0,0,0,0,0,0,0,0,0,0,0,0,0,0,0,0,0,0,0,0,0,0,0,0,0,0,0,0,0,0,0,-3.719,-3.7192,0,-3.7377,-3.7379,-3.7381,-3.7375,-3.7372,-3.737,-3.7367,-3.7562,-3.7569,-3.7577,0,0,0,0,0,0,0,0,0,0,0,0,0,-3.6833,-3.6839,-3.719,-3.7192,-3.7195,-3.7376,-3.7379,-3.7381,-3.7375,-3.7372,-3.7369,-3.7366,-3.7559,-3.7568,-3.7577,0,0,0,0,0,0,0,0,0,0,0,0,0,-3.7,-3.6841,-3.719,-3.7213,-3.7217,-3.7376,-3.7379,-3.7382,-3.7376,-3.7372,-3.7368,-3.7365,-3.7556,-3.7567,-3.7579,-3.7727,0,0,-3.7613,-3.7618,0,0,0,0,0,0,0,0,-3.6991,-3.7014,-3.7208,-3.7212,-3.7217,-3.7348,-3.7324,-3.7498,-3.7377,-3.7316,-3.7367,-3.7363,-3.7494,-3.751,-3.7554,-3.7736,-3.7744,-3.7614,-3.7621,-3.7626,-3.7629,0,0,0,0,0,0,0,-3.6979,-3.7006,-3.7264,-3.721,-3.7216,-3.7216,-3.7236,-3.7357,-3.7425,-3.7321,-3.7321,-3.7343,-3.7496,-3.7543,-3.7559,-3.7747,-3.7614,-3.7624,-3.7631,-3.7636,-3.8061,-3.8066,0,0,0,0,0,0,-3.6962,-3.6996,-3.7258,-3.7269,-3.7092,-3.7226,-3.7248,-3.731,-3.7423,-3.7437,-3.7346,-3.7342,-3.7526,-3.7545,-3.7565,-3.7747,-3.7626,-3.7637,-3.7643,-3.8057,-3.8062,-3.8067,0,0,0,0,0,0,-3.6954,-3.6985,-3.725,-3.7133,-3.7166,-3.7236,-3.7306,-3.7316,-3.7363,-3.7442,-3.7455,-3.7381,-3.7523,-3.7549,-3.7687,-3.7754,-3.7642,-3.7652,-3.8052,-3.8059,-3.8065,-3.8111,0,0,0,0,0,0,-3.6944,-3.6983,-3.7039,-3.7134,-3.7173,-3.7367,-3.731,-3.7322,-3.7382,-3.7379,-3.7479,-3.7492,-3.7522,-3.767,-3.7698,-3.7767,-3.7661,-3.8046,-3.8055,-3.8063,-3.8104,-3.8119,-3.8131,0,0,0,0,0,-3.6931,-3.7045,-3.7041,-3.7073,-3.7244,-3.7371,-3.7394,-3.7425,-3.7387,-3.7445,-3.7496,-3.7488,-3.7742,-3.7684,-3.7716,-3.7789,-3.8042,-3.8052,-3.8062,-3.8098,-3.8116,-3.8131,0,0,0,0,0,0,-3.6956,-3.7058,-3.7055,-3.7202,-3.7278,-3.737,-3.7443,-3.7443,-3.7532,-3.7525,-3.7562,-3.7585,-3.7723,-3.777,-3.7703,-3.794,-3.7887,-3.7904,-3.7904,-3.7921,-3.7935,-3.7921,-3.7671,0,0,0,0,0,-3.6979,-3.7073,-3.7156,-3.7278,-3.7316,-3.7373,-3.743,-3.7448,-3.7529,-3.7561,-3.7622,-3.7702,-3.7799,-3.7863,-3.7957,-3.8111,-3.8133,-3.8177,-3.8191,-3.8202,-3.8216,-3.8302,-3.8323,-3.81,-3.81,-3.81,0,0,-3.7027,-3.7094,-3.7151,-3.7285,-3.7346,-3.7444,-3.7401,-3.7505,-3.7579,-3.7577,-3.7711,-3.7758,-3.785,-3.7996,-3.8064,-3.804,-3.8283,-3.8215,-3.8222,-3.8231,-3.8315,-3.8336,-3.8355,-3.8107,-3.8106,-3.8105,0,0,-3.7164,-3.7223,-3.7332,-3.7393,-3.7486,-3.7523,-3.7549,-3.7642,-3.7673,-3.7807,-3.7808,-3.7897,-3.8064,-3.8129,-3.8184,-3.8347,-3.8344,-3.8377,-3.8448,-3.8532,-3.855,-3.8566,-3.8625,-3.8646,-3.8391,-3.8391,-3.8391,0,-3.7212,-3.7357,-3.7388,-3.7494,-3.7553,-3.7556,-3.7667,-3.7726,-3.7845,-3.7887,-3.7858,-3.8068,-3.813,-3.8292,-3.8332,-3.8376,-3.8409,-3.8366,-3.8544,-3.8561,-3.8576,-3.8633,-3.8655,-3.8395,-3.8394,-3.8394,-3.8394,0,-3.7413,-3.7514,-3.7591,-3.7704,-3.7773,-3.7881,-3.7929,-3.7995,-3.8008,-3.8048,-3.8186,-3.826,-3.837,-3.841,-3.8423,-3.8575,-3.8557,-3.8536,-3.8484,-3.86,-3.8654,-3.8676,-3.84,-3.8398,-3.8397,-3.8396,0,0,-3.757,-3.77,-3.7727,-3.778,-3.7882,-3.7962,-3.8071,-3.8177,-3.8234,-3.8316,-3.8409,-3.8551,-3.8532,-3.8595,-3.8616,-3.8689,-3.8815,-3.8659,-3.8662,-3.8687,-3.8989,-3.9004,-3.9029,-3.8813,-3.8818,-3.8821,-3.8981,0,-3.7719,-3.791,-3.7941,-3.811,-3.8205,-3.8209,-3.8304,-3.8378,-3.842,-3.8507,-3.8554,-3.8654,-3.8621,-3.8659,-3.8732,-3.8784,-3.8876,-3.8773,-3.8902,-3.8906,-3.888,-3.9057,-3.9074,-3.9222,-3.9003,-3.9006,-3.9009,0,-3.7917,-3.8003,-3.8181,-3.8272,-3.8313,-3.8398,-3.8498,-3.8582,-3.8667,-3.8692,-3.8762,-3.8775,-3.8889,-3.8832,-3.8992,-3.8921,-3.8976,-3.901,-3.9016,-3.903,-3.8965,-3.9077,-3.927,-3.9292,-3.9042,-3.904,-3.9037,0,-3.8015,-3.8176,-3.8304,-3.8349,-3.8457,-3.8517,-3.8565,-3.8646,-3.8708,-3.8797,-3.8838,-3.8939,-3.8995,-3.9074,-3.9114,-3.9068,-3.9272,-3.9217,-3.9297,-3.9296,-3.934,-3.9337,-3.9545,-3.9374,-3.9374,-3.9373,-3.9373,0,-3.8178,-3.8287,-3.835,-3.8428,-3.8551,-3.8587,-3.8708,-3.8755,-3.8827,-3.8916,-3.8927,-3.901,-3.9058,-3.9149,-3.9182,-3.931,-3.9335,-3.936,-3.9367,-3.9359,-3.9356,-3.9396,-3.9387,-3.9379,-3.9378,-3.9377,-3.9376,0,-3.8309,-3.8355,-3.8494,-3.8586,-3.8611,-3.8698,-3.8777,-3.8855,-3.8896,-3.9009,-3.9037,-3.9103,-3.9211,-3.9258,-3.9392,-3.9414,-3.9561,-3.956,-3.9532,-3.9535,-3.9612,-3.9605,-3.9854,-3.9889,-3.9694,-3.9695,-3.9697,0,-3.841,-3.8494,-3.8594,-3.8654,-3.8703,-3.88,-3.8863,-3.8902,-3.8968,-3.9072,-3.9137,-3.9245,-3.9334,-3.9507,-3.9567,-3.967,-3.9673,-3.9753,-3.9688,-3.9678,-3.9676,-3.967,-3.968,-3.9765,-3.9767,-3.9769,-3.977,0,-3.8585,-3.8604,-3.8694,-3.8793,-3.8868,-3.8949,-3.9027,-3.9076,-3.9127,-3.9202,-3.9312,-3.938,-3.9517,-3.9625,-3.9731,-3.9783,-3.9786,-3.979,-3.9814,-3.9807,-3.9788,-3.98,-3.9565,-3.9784,-3.9783,-3.9781,-3.9781,-3.978,-3.8705,-3.878,-3.8862,-3.8963,-3.9026,-3.91,-3.9177,-3.9228,-3.932,-3.9433,-3.9451,-3.9569,-3.9653,-3.9796,-3.9852,-3.9946,-3.9927,-3.9961,-3.997,-3.9979,-3.9984,-3.9772,-3.9966,-3.9965,-3.9965,-3.9965,-3.9964,0,-3.8881,-3.8934,-3.9027,-3.9136,-3.9216,-3.921,-3.9297,-3.9365,-3.9468,-3.9546,-3.9633,-3.976,-3.9865,-3.9934,-4.0041,-4.0103,-4.0107,-4.013,-4.0126,-4.0139,-3.9994,-3.9963,-4.0125,-4.0125,-4.0125,-4.0125,-4.0125,-4.0125,-3.8982,-3.9109,-3.9138,-3.9298,-3.9351,-3.9465,-3.9516,-3.9584,-3.9647,-3.9788,-3.9875,-3.9918,-3.9994,-4.0106,-4.0203,-4.022,-4.026,-4.0284,-4.0301,-4.0165,-4.0148,-4.0132,-4.0104,-4.0292,-4.0292,-4.0437,-4.0438,-4.0439]}]]